User: anonymous   Login
Location: Unspecified
(0.0000°N, 0.0000°E)
Time: 12:55:55
(UTC+00:00)
Language:

USA 148 - Orbit

View from above orbital plane
View from above orbital plane
View from above satellite
View from above satellite

Ground track
Ground track

The orbit data is extracted from the following two-line orbital elements,

1 26052U 00001A   19110.62591583 +.00000026 +00000-0 +00000-0 0  9995
2 26052 007.7719 049.0818 0003575 343.3070 221.4797 01.00273342006749
Epoch (UTC): 20 April 2019 15:01:19
Eccentricity: 0.0003575
inclination: 7.7719°
perigee height: 35771 km
apogee height: 35801 km
right ascension of ascending node: 49.0818°
argument of perigee: 343.3070°
revolutions per day: 1.00273342
mean anomaly at epoch: 221.4797°
orbit number at epoch: 674

The dashed part of the orbit path shows where the satellite is in the earth's shadow,  

DLR